Weather History for KHYA - August, 2014

Change the Weather History Date:

Thursday, August 28, 2014

  Actual Average Record
Temperature  
Mean Temperature 73 °F -  
Max Temperature 79 °F 76 °F 100 °F (1948)
Min Temperature 68 °F 62 °F 45 °F (1964)
Cooling Degree Days 8    
Growing Degree Days 23 (Base 50)    
Moisture  
Dew Point 60 °F    
Average Humidity 65    
Maximum Humidity 84    
Minimum Humidity 50    
Precipitation  
Precipitation 0.00 in - - ()
Sea Level Pressure  
Sea Level Pressure 29.82 in    
Wind  
Wind Speed 9 mph (NNW)    
Max Wind Speed 17 mph    
Max Gust Speed 29 mph    
Visibility 10 miles    
Events      
Averages and records for this station are not official NWS values.
T = Trace of Precipitation, MM = Missing Value Source: NWS Daily Summary

Daily Weather History Graph

Daily Weather History Graph

Search for Another Location

Airport or City:

Trip Planner

Search our weather history database for the weather conditions in past years. The results will help you decide how hot, cold, wet, or windy it might be!

Date:

Astronomy

Aug. 28, 2014 Rise Set
Actual Time 6:02 AM EDT 7:20 PM EDT
Civil Twilight 5:34 AM EDT 7:49 PM EDT
Nautical Twilight 4:59 AM EDT 8:24 PM EDT
Astronomical Twilight 4:22 AM EDT 9:00 PM EDT
Moon 8:55 AM EDT 8:39 PM EDT
Length of Visible Light 14h 15m
Length of Day
13h 18m
Waxing Crescent, 8% of the Moon is Illuminated
Aug 28
Waxing Crescent
Sep 2
First Quarter
Sep 8
Full
Sep 15
Last Quarter
Sep 24
New

Hourly Weather History & Observations

Time (EDT) Temp. Dew Point Humidity Pressure Visibility Wind Dir Wind Speed Gust Speed Precip Events Conditions
12:56 AM 72.0 °F 59.0 °F 64% 29.84 in 10.0 mi SW 8.1 mph - N/A   Mostly Cloudy
1:56 AM 73.0 °F 57.9 °F 59% 29.81 in 10.0 mi SW 9.2 mph - N/A   Overcast
2:56 AM 72.0 °F 62.1 °F 71% 29.79 in 10.0 mi WSW 8.1 mph - N/A   Partly Cloudy
3:56 AM 70.0 °F 63.0 °F 78% 29.77 in 10.0 mi WSW 4.6 mph - N/A   Mostly Cloudy
4:56 AM 70.0 °F 64.9 °F 84% 29.77 in 10.0 mi NW 4.6 mph - N/A   Scattered Clouds
5:56 AM 70.0 °F 64.9 °F 84% 29.76 in 10.0 mi North 8.1 mph - N/A   Clear
6:56 AM 70.0 °F 64.0 °F 81% 29.77 in 10.0 mi North 11.5 mph - N/A   Clear
7:56 AM 72.0 °F 64.0 °F 76% 29.77 in 10.0 mi NNW 12.7 mph - N/A   Clear
8:56 AM 73.0 °F 64.0 °F 73% 29.77 in 10.0 mi North 11.5 mph 23.0 mph N/A   Clear
9:56 AM 73.9 °F 63.0 °F 68% 29.78 in 10.0 mi North 15.0 mph 28.8 mph N/A   Clear
10:56 AM 73.9 °F 62.1 °F 66% 29.78 in 10.0 mi NNW 15.0 mph 23.0 mph N/A   Clear
11:56 AM 73.9 °F 61.0 °F 64% 29.78 in 10.0 mi North 16.1 mph 24.2 mph N/A   Clear
12:56 PM 75.9 °F 61.0 °F 60% 29.78 in 10.0 mi North 17.3 mph 24.2 mph N/A   Clear
1:56 PM 75.9 °F 60.1 °F 58% 29.79 in 10.0 mi NNE 11.5 mph 21.9 mph N/A   Clear
2:56 PM 77.0 °F 57.0 °F 50% 29.79 in 10.0 mi NNE 10.4 mph - N/A   Partly Cloudy
3:56 PM 75.9 °F 55.9 °F 50% 29.80 in 10.0 mi North 5.8 mph - N/A   Scattered Clouds
4:56 PM 75.9 °F 57.0 °F 52% 29.81 in 10.0 mi North 5.8 mph - N/A   Mostly Cloudy
5:56 PM 73.0 °F 57.9 °F 59% 29.82 in 10.0 mi NW 4.6 mph - N/A   Mostly Cloudy
6:56 PM 71.1 °F 57.9 °F 63% 29.84 in 10.0 mi NW 3.5 mph - N/A   Scattered Clouds
7:56 PM 71.1 °F 55.9 °F 59% 29.87 in 10.0 mi NNW 8.1 mph - N/A   Mostly Cloudy
8:56 PM 70.0 °F 55.9 °F 61% 29.90 in 10.0 mi North 10.4 mph 18.4 mph N/A   Partly Cloudy
9:56 PM 70.0 °F 54.0 °F 57% 29.93 in 10.0 mi NNW 9.2 mph - N/A   Clear
10:56 PM 69.1 °F 53.1 °F 57% 29.95 in 10.0 mi NNW 9.2 mph - N/A   Clear
11:56 PM 68.0 °F 54.0 °F 61% 29.96 in 10.0 mi NNW 9.2 mph - N/A   Clear